Погода в Горьковском

Россия / Волгоградская область     48°41′12″N   44°19′35″E
темп.,
°C
ветер,
м/с
пор.,
м/с
влажн.,
%
обл.,
%
осадки,
мм/ч
давл.,
гПа
погр.,
м
19 мая, ср
ср1900:00+14зюз37955 0.0 1011191
03:00+14юз12930 0.0 101118
06:00+16зсз118290 0.0 101180
09:00+21всв4452100 0.0 1010743
12:00+23юв4543100 0.0 1009845
15:00+24ююз91043100 0.0 10101819
18:00+15зюз81378100 0.0 1011520
21:00+14з41181100 0.0 1012402
20 мая, чт
чт2000:00+13ю358795 0.0 1013157
03:00+12юз5109510 0.0 1013357
06:00+12юз6118816 0.0 1013433
09:00+16юз796993 0.1 10131069
12:00+18зюз8115781 0.1 10131619
15:00+20зюз8115092 0.2 10131866
18:00+19юз585823 0.0 10141167
21:00+15юз48745 0.0 1015166
21 мая, пт
пт2100:00+14юз337937 0.0 101645
03:00+14юз0076100 0.0 101611
06:00+16юв3573100 0.0 1017138
09:00+20юв5754100 0.0 1017521
12:00+25юв6736100 0.0 10161338
15:00+27юв463067 0.0 10151778
18:00+27вюв593465 0.0 1014449
21:00+22юв5124797 0.0 1014241
22 мая, сб
сб2200:00+21юв5133889 0.0 1014321
03:00+18вюв5124314 0.0 1013240
06:00+19вюв6164692 0.0 1013422
09:00+24юв8143789 0.0 1013816
12:00+30юв9122711 0.0 10121588
15:00+33юв8122495 0.0 10102078
18:00+30юв6112855 0.0 1010466
21:00+25вюв513355 0.0 1011284
23 мая, вс
вс2300:00+22вюв51331100 0.0 1011233
03:00+21в51329100 0.0 1010250
06:00+22в716340 0.0 1010351
09:00+28вюв8143013 0.0 1009654
12:00+34вюв1015215 0.0 10081698
15:00+35юв11171914 0.0 10052399
18:00+31юв101625100 0.0 1005822
21:00+27ююв9172580 0.0 1008947